CZ-6A DEB, 60969

Orbit data source: Space-Track

CZ-6A DEB, 60969 is space debris in LEO originally from a launch on Tue, 06 Aug 2024 UTC launched from the Taiyaun Space Center, China (TSC). Debris objects in space refer to the collection of defunct objects orbiting the Earth. Examples of debris include non-operational satellites, rocket bodies, and fragments generated from explosions, collisions, or faulty payload assembly.

Loading next visibility...
Identifier
60969, 2024-140LU
Orbit
LEO
Country
Flag of CNCN / PRC
Related business
Manufacturer
SAST
Mission
Spacecraft
Bus & Motor
Unknown
Mass
Unknown
Launch date (UTC)
2024-08-06 (2 years ago)
Launch vehicle
Unknown
Launch site
Taiyaun Space Center, China (TSC)
Object type
Payload
Rocket body
Debris
Shape & HBR
Unknown shape, 0.3 m
Radar Cross Section
Medium (>0.1 m² and <1 m²)

Expand to show TLE details & history
Last TLE update: 12 hours ago

TLE from 12 hours ago
0 CZ-6A DEB
1 60969U 24140LU  26171.34891813  .00000175  00000-0  77375-4 0  9991
2 60969  89.0071 274.9912 0051116 192.4518 167.5412 14.18218588 95517
Epoch: 2026-06-20T08:22Z
TLE epoch observation values (Epoch: 2026-06-20T08:22:26.526Z)
Latitude
-0.00005°
Longitude
-119.18415°
Altitude
870.435 km
Speed
7.399 km/s
True Right ascension
18h 19m 57s
True Declination
0° 00' 00"
Sunlit
Object was in full shadow at epoch
Visualization orbit readout
Latitude
Unknown
Longitude
Unknown
Altitude
Unknown
Speed
Unknown
Apparent Right ascension
Unknown
Apparent Declination
Unknown
Sunlit
N/A
Visualization observer readout
Local Sidereal Time
07:19:05
Azimuth
Unknown
Elevation
Unknown
Doppler factor
Unknown
Orbital elements
Apogee altitude
865.174 km
Perigee altitude
791.501 km
Semi-major axis
7,206.474 km
Eccentricity
0.00511
Inclination
89.0071°
RAAN
274.9912°
Arg. of periapsis
192.4518°
True anomaly
167.66678°
Mean anomaly
167.5412°
Eccentric anomaly
167.60407°
Mean motion
3.5478 °/min
Orbital period
101.47 mins
BSTAR
0.000077375
Loading maneuver chart data...
Computing Atmospheric mass density...
Loading historical data...
Loading historical data...
Loading historical data...
Loading historical data...
Loading historical data...
Loading historical data...
Loading historical data...

Documentation

Showing up to 5 results
|